Regional Weather Roundup
Issued by NWS

Home | Current Version | Previous Version | Graphics & Text | Print | Product List | Glossary On
Versions: 1 2 3 4 5 6 7 8 9 10 11 12 13 14 15 16 17 18 19 20 21 22 23 24 25 26 27 28 29 30 31 32 33 34 35 36 37 38 39 40 41 42 43 44 45 46 47 48 49 50
000
ASUS43 KOAX 261210
RWRNE

WEATHER ROUNDUP FOR NEBRASKA
NATIONAL WEATHER SERVICE OMAHA NE
700 AM CDT FRI AUG 26 2016

NOTES: SATELLITE DATA IS BEING USED TO AUGMENT CLOUD COVER ABOVE
       12000 FEET.
       "FAIR" INDICATES FEW OR NO CLOUDS BELOW 12,000 FEET WITH NO
       SIGNIFICANT WEATHER AND/OR OBSTRUCTIONS TO VISIBILITY.

  * THESE STATIONS DO NOT REPORT WEATHER SUCH AS RAIN...SNOW OR FOG.

NEZ001>004-019>022-054>056-261300-
NEBRASKA PANHANDLE

CITY           SKY/WX    TMP DP  RH WIND       PRES   REMARKS
SCOTTSBLUFF    PTCLDY    55  50  83 CALM      30.13S
6HR MIN TEMP:  55; 6HR MAX TEMP:  58;

ALLIANCE       CLOUDY    54  50  86 SE12      30.14S
6HR MIN TEMP:  50; 6HR MAX TEMP:  55;

CHADRON        HVY RAIN  54  51  90 SE5       30.14R FOG
6HR MIN TEMP:  53; 6HR MAX TEMP:  58; 6HR PCP:  0.13;

KIMBALL        CLOUDY    56  56  97 S6        30.17F
SIDNEY         MOCLDY    56  51  84 S15       30.18R
6HR MIN TEMP:  51; 6HR MAX TEMP:  58;

$$

NEZ057>060-069>072-079>082-261300-
SOUTHWEST NEBRASKA

CITY           SKY/WX    TMP DP  RH WIND       PRES   REMARKS
NORTH PLATTE   PTCLDY    51  49  92 E5        30.19R FOG
6HR MIN TEMP:  50; 6HR MAX TEMP:  55;

IMPERIAL       CLOUDY    56  52  86 S6        30.18S
6HR MIN TEMP:  53; 6HR MAX TEMP:  58;

LEXINGTON      CLOUDY    53  51  94 CALM      30.19S
MCCOOK         CLOUDY    57  54  89 E3        30.18S
6HR MIN TEMP:  54; 6HR MAX TEMP:  60;

OGALLALA       CLOUDY    55  51  86 CALM      30.18S
$$

NEZ005>010-023>029-035>040-094-261300-
NORTH CENTRAL NEBRASKA

CITY           SKY/WX    TMP DP  RH WIND       PRES   REMARKS
VALENTINE      MOCLDY    49  45  86 CALM      30.19S
6HR MIN TEMP:  45; 6HR MAX TEMP:  52;

AINSWORTH      CLEAR     49  49  98 CALM      30.19S
BROKEN BOW     PTCLDY    47  46  97 CALM      30.19R
6HR MIN TEMP:  47; 6HR MAX TEMP:  52;

O`NEILL        PTCLDY    51  49  94 CALM      30.19R
ORD            PTCLDY    51  49  92 CALM      30.18R
6HR MIN TEMP:  51; 6HR MAX TEMP:  56;

THEDFORD       CLOUDY    49  48  94 SE5       30.20R
$$

NEZ041-046>049-061>064-073>077-083>087-261300-
SOUTH CENTRAL NEBRASKA

CITY           SKY/WX    TMP DP  RH WIND       PRES   REMARKS
GRAND ISLAND   CLOUDY    54  53  97 SE3       30.18S
6HR MIN TEMP:  53; 6HR MAX TEMP:  57;

AURORA         MOCLDY    56  56 100 E3        30.17F
HASTINGS       CLOUDY    57  54  89 E6        30.18S
6HR MIN TEMP:  56; 6HR MAX TEMP:  60;

HEBRON         CLOUDY    60  58  95 CALM      30.15S
HOLDREGE       CLOUDY    59  56  92 E5        30.18R FOG
KEARNEY *      CLOUDY    55  54  94 E3        30.17S
YORK           CLOUDY    57  55  94 CALM      30.18S
$$

NEZ011>018-030>034-042>045-261300-
NORTHEAST NEBRASKA

CITY           SKY/WX    TMP DP  RH WIND       PRES   REMARKS
NORFOLK        MOCLDY    53  51  93 CALM      30.17S
6HR MIN TEMP:  52; 6HR MAX TEMP:  57;

ALBION         CLOUDY    52  50  92 CALM      30.18S
BLAIR          CLOUDY    60  58  91 NE6       30.17R
FREMONT        CLOUDY    56  56  97 CALM      30.18R
TEKAMAH        CLOUDY    55  53  93 CALM      30.18R
6HR MIN TEMP:  53; 6HR MAX TEMP:  58;

WAYNE          CLOUDY    52  52  99 CALM      30.19R
$$

NEZ050>053-065>068-078-088>093-261300-
SOUTHEAST NEBRASKA

CITY           SKY/WX    TMP DP  RH WIND       PRES   REMARKS
LINCOLN        CLOUDY    61  58  90 N3        30.18R
6HR MIN TEMP:  58; 6HR MAX TEMP:  61;

OMAHA EPPLEY   CLOUDY    59  56  89 NW5       30.16S
6HR MIN TEMP:  58; 6HR MAX TEMP:  63;

BEATRICE       CLOUDY    60  59  96 NE6       30.15R
FALLS CITY     RAIN      65  64  97 NE10      30.12F FOG
6HR MIN TEMP:  64; 6HR MAX TEMP:  66; 6HR PCP:  0.36;

NEBRASKA CITY  CLOUDY    61  61 100 NE5       30.16R
PLATTSMOUTH    CLOUDY    61  59  92 NE5       30.17R
$$

NEZ044-045-051>053-067-261300-
OMAHA AREA

CITY           SKY/WX    TMP DP  RH WIND       PRES   REMARKS
OMAHA EPPLEY   CLOUDY    59  56  89 NW5       30.16S
6HR MIN TEMP:  58; 6HR MAX TEMP:  63;

BLAIR          CLOUDY    60  58  91 NE6       30.17R
FREMONT        CLOUDY    56  56  97 CALM      30.18R
MILLARD        CLOUDY    60  58  92 CALM      30.16S
OFFUTT AFB     CLOUDY    62  59  91 NE6       30.15S
PLATTSMOUTH    CLOUDY    61  59  92 NE5       30.17R
WAHOO          FAIR      58  56  94 N5        30.17R
$$




USA.gov is the U.S. government's official web portal to all federal, state and local government web resources and services.